Погода в Некрасове

Россия / Саратовская область     51°09′47″N   45°18′32″E
темп.,
°C
ветер,
м/с
пор.,
м/с
влажн.,
%
обл.,
%
осадки,
мм/ч
давл.,
гПа
погр.,
м
6 марта, сб
сб601:00−7сз2291100 0.0 101521
04:00−7сз229299 0.0 101621
07:00−9ссв1194100 0.0 101621
10:00−6св1190100 0.0 101644
13:00−4в2284100 0.0 1016255
16:00−4в2395100 0.3 1014255
19:00−6вюв2294100 0.2 101328
22:00−8ссз1192100 0.3 101321
7 марта, вс
вс701:00−9з229792 0.1 101426
04:00−10зсз4109696 0.3 1014272
07:00−13зсз41096100 0.1 1016225
10:00−12з589390 0.1 1017265
13:00−7зюз6108936 0.0 1016638
16:00−5зюз6128166 0.0 10141026
19:00−4юз81680100 0.0 1011726
22:00−4юз101877100 0.0 1009853
8 марта, пн
пн801:00−4юз10197797 0.0 1006923
04:00−3зюз10179498 0.3 1005928
07:00−3зюз91693100 0.4 1005823
10:00−2зюз91492100 0.6 1006903
13:00−1юз91393100 0.3 1006951
16:00−1зюз91493100 0.6 10051117
19:00−1зюз81588100 0.2 1005791
22:00−4зсз41190100 0.8 1008498
9 марта, вт
вт901:00−9з339296 0.0 100965
04:00−13з349463 0.0 101037
07:00−14з34940 0.0 101237
10:00−12зсз36940 0.0 1013252
13:00−9зсз469192 0.0 1014426
16:00−8зсз578795 0.0 1015699
19:00−12зсз3694100 0.0 101599
22:00−16сз349786 0.1 101851
10 марта, ср
ср1001:00−18зсз239860 0.0 101920
04:00−19зсз339976 0.0 102026
07:00−20зсз349997 0.0 102143
10:00−17сз489582 0.0 1022282
13:00−15сз578895 0.0 1024569
16:00−14зсз588497 0.0 1024720
19:00−19сз449466 0.0 102567
22:00−22ссз349534 0.0 102740